Theta_e
312 312 311 310 310 310 310 309 308 307 308 308 308 307 308 307 307 307 307 307 306 306 306 306 307 307 307 308 308 308 308 308 308 307 306 307 308 308 308 308 308 308 308 308 308 308 308 308 307 305 304 304 304 304 304 305 305 305 304 304 303 303 303 302 301 301 301 300 300
312 312 311 309 307 308 309 309 308 308 308 309 309 308 308 308 307 307 307 307 306 307 307 306 307 307 308 308 308 308 308 308 308 308 307 307 308 308 308 308 308 308 308 308 307 307 306 306 305 303 302 302 302 302 302 302 303 302 302 302 301 301 301 301 300 300 300 299 299
312 312 312 311 309 309 308 308 309 309 309 310 310 309 309 308 307 307 307 307 307 307 307 307 307 307 308 308 308 308 309 309 309 308 308 308 308 308 308 308 308 308 307 307 306 306 305 304 303 302 301 301 300 300 300 301 301 301 300 300 300 300 300 299 299 299 299 298 298
313 312 312 311 310 310 309 308 309 309 309 310 310 310 309 309 308 308 307 308 308 307 307 307 308 308 308 308 308 308 308 307 308 308 308 308 308 308 308 308 308 307 307 306 306 305 304 303 302 301 300 300 300 300 300 300 300 300 300 300 300 300 299 299 299 298 298 298 298
313 313 312 311 311 311 310 310 310 310 310 310 309 309 308 308 308 308 308 307 307 307 307 308 309 309 309 308 308 308 308 307 305 306 308 308 308 308 308 308 307 307 306 305 305 304 303 302 301 301 300 300 300 300 300 300 300 299 299 299 299 299 298 298 298 298 297 297 297
314 314 313 312 312 311 311 311 311 310 310 310 309 308 307 307 307 307 306 306 307 307 308 307 307 307 307 307 307 307 307 308 307 307 307 307 308 308 308 307 307 306 305 305 304 303 303 302 301 301 301 300 300 300 300 300 299 299 298 298 298 298 298 297 297 297 297 297 297
312 312 312 311 311 311 311 311 310 311 310 309 308 308 307 307 307 307 307 307 307 307 307 306 306 306 306 306 307 307 307 307 307 307 307 307 307 307 307 306 305 305 304 304 304 303 302 302 301 300 300 299 299 299 300 300 299 298 298 298 298 298 298 297 298 297 297 296 296
310 310 309 308 308 309 309 309 309 309 308 307 307 307 307 307 307 307 307 307 306 306 306 306 307 306 306 306 306 306 306 306 306 306 306 307 307 306 306 305 304 304 303 303 303 302 302 302 301 300 300 299 298 298 299 300 299 298 298 297 298 298 298 298 298 297 297 296 296
309 308 307 306 306 307 307 308 308 308 307 307 307 307 307 307 307 307 306 306 306 306 306 306 306 306 306 305 306 306 306 306 306 306 306 306 306 305 304 304 303 302 302 302 302 302 301 301 300 299 298 298 298 298 299 299 299 298 298 297 297 298 298 298 298 297 297 297 296
307 306 306 305 306 306 306 306 306 306 306 306 306 306 306 304 305 305 306 305 305 305 305 305 305 305 305 305 305 305 306 306 305 305 305 305 304 303 303 302 302 301 301 301 301 301 300 299 299 298 298 298 298 299 299 299 299 298 298 297 297 297 297 297 297 297 297 296 296
305 305 305 305 305 305 304 305 305 305 305 305 305 305 305 304 305 305 305 305 305 305 305 305 305 305 304 305 305 305 305 305 305 305 304 303 302 302 301 301 300 300 300 300 300 300 299 298 298 298 298 299 299 299 299 299 298 298 298 297 297 297 297 297 297 297 296 296 295
303 304 304 304 304 303 304 304 304 304 304 304 304 304 304 305 305 304 304 304 304 304 304 304 305 305 304 304 304 304 304 305 304 303 302 302 301 301 300 300 299 299 299 299 299 299 298 297 297 298 298 299 299 299 299 298 298 297 297 297 297 297 296 296 296 296 296 295 295
302 302 302 303 303 303 303 303 303 304 304 304 304 304 304 304 304 303 303 303 303 303 303 303 304 304 304 304 304 304 304 303 303 302 301 300 300 300 299 299 298 298 298 298 299 298 298 297 298 298 298 298 298 298 298 298 297 297 297 296 296 296 296 296 296 295 295 294 293
301 302 302 302 302 303 303 303 303 303 303 303 303 303 303 303 303 302 302 302 301 302 302 302 303 303 303 303 303 303 302 302 301 301 300 300 299 299 298 298 298 298 298 299 299 299 298 298 298 298 297 297 297 298 298 298 297 297 296 296 296 295 295 295 295 294 294 293 292
302 302 302 302 303 303 304 303 303 303 303 303 303 302 302 302 302 301 301 301 301 301 301 301 302 302 302 302 302 302 302 301 301 300 299 299 299 298 298 298 298 298 299 299 299 299 298 298 298 297 297 297 297 297 297 297 297 296 296 295 295 295 294 294 294 293 293 292 292
303 303 303 303 303 303 303 303 303 303 302 302 302 302 302 301 301 301 301 300 300 300 300 300 301 301 302 301 301 301 301 301 300 299 299 298 298 298 298 298 299 299 299 299 298 298 299 299 298 298 297 297 297 296 296 296 296 296 295 295 294 294 294 293 293 292 292 292 291
303 303 303 303 303 302 302 303 303 302 302 302 302 302 301 301 301 300 299 299 299 299 299 299 300 300 301 301 301 301 300 300 299 299 298 298 298 298 298 298 298 298 298 298 298 298 298 298 299 298 298 297 297 296 296 295 295 295 294 294 294 293 293 292 292 292 292 291 291
303 303 303 303 302 302 302 302 302 302 302 302 301 301 301 300 300 299 299 298 298 298 297 297 299 299 300 301 301 300 299 299 299 298 298 298 298 298 298 298 298 298 298 298 298 298 298 298 298 297 297 297 296 295 295 295 294 294 294 293 293 293 293 292 292 292 292 291 291
303 303 303 303 303 302 302 302 302 302 301 301 301 300 300 299 299 298 298 297 297 297 297 297 297 298 299 300 300 299 298 298 298 298 298 298 298 298 298 298 298 298 298 298 298 297 297 297 296 296 296 295 295 294 294 294 293 293 293 293 293 293 292 292 292 291 291 291 290
303 303 303 303 303 303 302 302 301 301 301 300 300 299 299 299 298 297 297 297 297 297 297 297 297 298 298 299 299 299 298 298 299 298 298 298 298 298 298 297 297 297 297 297 297 296 296 295 295 295 294 294 293 293 293 293 293 293 292 292 292 292 291 291 291 290 290 290 290
303 303 303 304 303 303 302 302 302 301 300 299 299 299 298 298 297 297 297 297 298 298 298 298 298 298 299 299 299 299 299 299 299 299 298 298 297 297 297 297 297 296 296 296 295 295 294 294 294 294 293 293 293 292 292 292 292 292 292 292 291 291 291 290 290 290 290 289 290
304 304 304 304 303 303 302 302 301 300 299 299 298 298 298 297 297 297 297 299 299 299 299 299 299 300 300 300 300 300 300 300 299 299 298 297 296 296 296 296 296 295 295 294 294 294 294 293 293 293 293 292 292 292 292 291 291 291 291 290 290 290 290 290 290 290 290 290 290
305 305 305 305 304 302 301 300 299 299 298 298 298 298 298 298 297 298 298 299 299 299 299 300 300 300 300 300 300 300 299 299 298 297 296 295 295 295 294 295 294 294 294 293 293 293 293 293 293 292 292 292 291 291 291 291 290 290 290 289 289 289 290 290 290 290 290 290 290
306 305 305 304 303 302 300 299 298 298 298 298 299 299 299 298 298 299 299 299 299 300 300 300 300 300 299 299 299 298 298 297 296 295 295 294 294 294 294 294 294 294 293 293 292 291 291 291 291 291 291 291 290 290 290 290 290 290 290 289 289 289 290 290 290 291 291 290 291
306 305 304 303 301 300 299 299 299 299 299 299 299 299 298 299 299 299 299 299 299 300 300 299 299 298 298 297 297 296 296 295 294 294 294 294 294 294 294 294 294 293 293 291 289 288 288 288 289 290 290 290 290 290 290 290 290 290 290 290 289 289 289 290 290 290 290 290 290
304 302 301 299 299 299 299 299 299 299 298 298 297 297 298 298 298 298 299 299 299 299 299 298 297 296 296 296 295 295 295 294 294 294 294 294 294 294 293 293 293 293 293 291 289 287 287 287 287 288 288 289 290 289 289 290 290 290 290 290 290 289 289 289 289 289 290 290 290
300 298 298 297 297 297 297 298 297 297 297 297 297 297 297 298 298 298 298 298 298 298 297 297 296 295 294 295 295 295 295 294 294 294 294 293 293 292 292 293 293 293 292 291 289 288 287 287 287 287 287 289 289 289 289 289 289 290 290 290 289 289 289 289 289 289 289 290 290
297 297 297 297 297 296 296 296 296 296 296 297 297 297 297 298 298 297 297 297 296 296 296 296 295 295 295 295 294 294 294 294 293 293 293 292 292 292 292 292 293 292 292 290 289 288 288 287 287 287 286 287 288 289 289 289 289 289 289 289 289 289 289 289 289 289 289 289 289
297 297 297 296 296 295 295 295 295 295 296 296 296 296 297 296 296 296 295 295 294 294 295 295 295 294 294 294 293 293 293 293 292 292 292 292 291 292 292 292 292 291 290 289 288 287 287 286 286 286 286 287 288 288 289 288 288 288 288 289 288 289 288 288 288 288 288 288 288
296 295 295 295 294 294 294 294 294 294 294 294 295 295 295 295 294 294 293 293 294 294 293 293 293 293 293 292 292 292 292 292 292 292 292 292 291 291 291 291 291 290 288 285 285 285 285 285 286 286 287 287 287 288 288 288 288 288 288 288 288 288 288 288 288 288 288 288 287
294 294 294 293 293 293 293 293 293 293 294 294 294 294 294 294 293 293 293 293 293 293 293 293 292 292 292 292 292 292 292 292 292 292 292 291 291 290 290 290 290 289 287 283 284 284 285 285 286 286 286 287 286 287 288 288 288 288 288 288 288 288 288 288 288 288 288 287 287
292 292 292 292 292 292 293 293 293 294 294 294 294 294 294 293 293 293 292 292 292 292 292 292 292 292 292 292 291 291 291 291 291 291 291 290 290 290 289 289 289 288 286 283 284 284 285 285 286 285 286 286 286 286 287 287 287 288 288 288 288 288 288 288 288 288 287 287 287
291 292 292 293 293 293 293 294 294 294 294 294 293 293 292 292 291 291 291 291 291 291 291 291 291 291 291 291 290 290 290 290 289 289 289 289 288 288 287 287 288 287 285 284 284 284 285 285 285 285 285 285 285 286 287 287 287 288 288 288 288 288 288 288 288 287 287 287 287
293 293 293 293 293 293 293 294 294 293 293 292 291 291 290 290 290 290 290 290 291 291 291 291 291 291 290 290 289 289 288 288 288 288 288 287 287 287 287 288 289 287 284 284 284 284 284 284 284 284 284 284 285 286 287 287 287 287 288 288 288 288 288 288 288 288 287 287 287
294 294 293 293 293 292 292 292 292 291 290 290 289 289 289 289 289 289 289 289 290 290 291 290 291 290 289 289 288 287 287 287 287 288 288 288 287 287 287 287 288 286 283 283 283 283 284 284 284 284 284 284 285 286 287 287 287 287 287 287 287 288 288 288 288 287 287 287 286
294 293 293 292 291 291 291 290 290 289 289 288 289 289 289 289 290 290 290 289 289 289 289 289 289 288 288 287 287 286 286 286 287 287 288 288 287 287 286 286 287 285 284 283 283 283 283 283 283 283 283 284 285 286 286 286 286 287 287 287 287 287 287 287 287 287 286 286 285
292 292 291 291 290 290 289 289 289 288 288 288 289 289 289 289 289 289 289 288 288 288 288 288 287 287 287 286 286 286 286 286 286 287 287 287 287 286 286 285 286 285 284 283 283 283 283 283 283 283 283 284 285 285 286 286 286 286 286 286 286 286 286 286 285 285 285 285 285
291 290 290 289 289 289 289 289 289 288 288 289 289 289 289 289 289 289 288 287 287 286 287 287 287 286 286 286 286 286 287 286 286 287 287 287 286 285 285 285 285 286 285 283 283 282 282 282 283 283 283 284 284 285 285 285 285 285 285 285 285 285 285 285 284 285 285 284 284
290 290 289 289 289 289 289 289 288 289 289 289 289 289 289 288 288 288 288 287 287 287 287 286 286 286 286 286 286 286 287 286 286 286 286 286 285 285 284 284 285 285 285 283 282 282 282 282 282 282 283 283 284 285 285 284 284 284 284 284 284 284 284 284 284 284 284 284 283
290 290 289 289 289 289 289 289 289 289 289 289 288 288 288 288 288 288 288 288 288 288 287 287 286 286 286 285 285 286 286 286 286 286 286 286 285 284 283 284 285 285 285 283 282 282 282 282 282 282 282 283 284 284 284 283 283 283 282 282 283 283 283 283 283 283 283 284 283
290 290 289 289 289 289 289 289 288 288 289 288 288 288 288 288 288 288 288 288 288 287 287 286 286 286 285 285 285 285 285 285 285 286 286 286 286 285 284 285 284 285 285 284 283 282 282 282 282 282 282 283 283 283 283 282 282 281 281 282 282 282 281 282 282 282 283 283 283
Wind_Speed
6 5 4 4 4 4 4 4 3 3 3 4 4 4 4 4 4 4 4 4 4 4 5 5 5 6 7 8 9 9 9 9 9 8 8 8 8 8 8 8 8 8 8 7 7 6 5 4 3 2 2 2 3 4 4 4 5 6 6 7 6 6 6 6 6 6 7 8 7
6 6 6 5 4 4 4 4 4 4 4 4 4 4 4 4 4 4 4 5 4 4 5 5 6 7 8 8 8 8 8 8 8 8 8 9 8 8 8 8 8 8 8 7 6 5 4 4 3 3 3 3 3 4 4 4 5 6 7 7 6 5 5 5 5 6 7 8 7
7 7 7 7 6 6 6 5 5 6 6 5 4 4 4 4 4 4 4 5 5 5 5 5 5 7 8 8 7 7 7 7 8 8 8 8 9 9 9 9 9 8 7 6 5 5 4 4 4 4 3 3 4 4 5 5 5 6 6 7 5 4 4 4 5 5 6 6 7
8 8 8 9 9 9 8 6 6 7 6 4 4 3 3 3 3 4 4 5 6 6 6 6 5 6 6 7 7 8 8 8 8 9 9 9 9 10 10 9 9 8 7 6 6 6 5 5 4 4 4 5 6 6 5 5 6 6 5 5 5 4 4 4 4 5 5 5 7
9 9 9 9 9 9 8 6 7 6 5 3 3 3 3 3 3 4 4 5 5 6 6 7 6 6 6 7 9 9 9 10 9 9 9 10 10 10 10 9 9 7 7 6 7 6 6 6 5 4 5 5 5 5 5 6 6 6 5 4 4 4 5 5 5 5 5 5 6
10 10 9 8 8 7 6 5 6 5 4 3 3 4 4 4 4 4 5 5 6 7 8 8 7 7 8 9 10 10 10 10 9 10 10 10 10 10 10 9 8 7 6 6 7 7 7 6 5 4 5 5 5 5 6 7 6 6 5 5 5 5 5 5 5 5 6 6 7
11 10 9 7 6 5 5 4 4 4 4 3 5 5 6 6 6 7 7 7 8 8 8 6 7 7 8 9 9 9 9 9 10 11 11 11 10 10 10 9 8 7 7 7 7 7 7 7 5 5 4 4 5 6 7 7 7 6 6 6 5 5 5 6 5 5 6 8 9
10 8 7 5 5 4 4 4 3 4 4 4 5 6 7 8 8 9 9 9 9 8 7 6 7 8 9 9 9 9 10 10 10 11 11 11 11 10 9 8 8 7 7 7 7 7 7 7 6 5 5 5 5 6 7 8 7 7 7 7 6 5 5 6 6 6 7 8 9
6 5 5 4 3 3 3 3 4 4 5 6 7 7 8 8 9 9 10 9 9 9 8 7 9 10 11 11 11 10 10 10 11 11 11 10 10 9 8 7 7 7 7 7 8 9 8 6 5 5 5 5 5 6 7 7 8 8 8 7 7 6 6 6 7 7 8 8 9
6 6 5 4 4 4 4 5 4 5 6 7 8 8 8 8 9 9 9 9 9 10 10 10 10 11 11 12 11 11 10 10 10 10 10 9 9 9 8 7 8 8 8 8 8 8 8 6 6 6 6 6 7 7 7 7 8 8 8 7 7 8 8 8 8 8 8 8 8
8 8 7 6 6 6 7 6 6 6 6 7 8 9 9 9 9 10 10 10 10 11 12 12 12 12 12 11 11 11 11 10 10 10 10 9 9 9 9 8 8 9 8 8 7 7 6 6 7 8 9 8 9 8 8 8 8 9 9 8 8 9 9 9 9 8 8 8 8
7 8 7 8 9 9 9 9 8 7 7 8 9 10 10 10 11 12 11 11 12 12 13 13 13 12 12 11 10 10 10 10 10 10 10 10 10 10 10 9 9 9 9 8 7 7 7 7 8 10 11 11 9 8 8 8 9 9 10 10 10 9 9 9 9 8 7 7 7
5 6 7 9 10 11 11 10 9 9 9 10 10 10 11 11 12 13 12 12 12 12 12 13 13 12 12 11 10 10 10 10 10 10 10 10 10 10 10 9 9 9 9 8 7 7 8 9 10 11 11 11 9 8 8 9 9 10 10 10 10 10 9 9 9 8 8 7 7
5 6 9 10 10 10 9 9 9 9 9 10 10 10 10 11 11 11 11 11 11 12 12 13 12 11 10 11 11 11 11 11 11 11 11 10 10 10 9 9 9 9 8 8 8 9 9 10 11 11 11 11 10 9 9 9 9 9 10 10 10 10 9 9 8 8 7 7 7
7 8 9 8 7 6 7 9 8 8 8 9 9 9 10 10 10 10 10 10 10 11 11 11 11 10 11 11 12 12 12 11 11 11 11 10 10 10 9 9 9 9 9 8 8 9 10 11 11 11 11 10 10 10 9 9 9 9 9 9 9 9 8 8 7 7 7 7 8
6 5 4 3 4 6 8 9 8 7 7 8 9 9 9 9 9 9 8 9 9 9 9 10 11 11 11 11 11 12 12 11 11 10 10 10 10 10 10 9 9 9 9 9 9 9 9 10 10 10 10 10 10 10 9 9 8 8 8 8 8 8 8 7 7 7 7 8 8
0 2 4 5 7 9 9 9 7 7 7 8 9 10 9 8 8 7 7 7 7 8 8 10 10 10 10 10 10 10 10 10 10 10 10 10 10 10 10 9 9 9 9 9 9 9 9 9 8 8 8 8 8 8 8 7 7 7 7 7 7 7 7 6 7 7 8 8 9
5 6 7 8 9 9 9 8 8 8 9 10 10 10 9 8 7 6 6 7 7 7 8 9 10 10 10 10 9 8 8 8 9 9 9 9 10 10 10 10 10 9 9 9 9 9 9 8 6 5 5 5 6 6 6 6 6 6 6 6 6 6 6 6 7 7 8 8 9
6 7 8 8 9 8 8 8 8 9 9 10 10 9 8 7 6 6 6 7 7 7 8 9 9 9 9 9 7 6 6 7 8 8 9 9 9 9 10 10 10 9 8 8 8 7 6 4 3 3 3 4 4 4 5 5 5 5 5 6 6 6 7 7 8 8 8 9 10
6 7 8 8 8 8 8 8 9 9 9 9 8 8 7 6 6 6 7 7 7 7 7 8 8 8 8 7 7 6 6 6 7 8 8 8 8 9 9 9 8 7 6 6 5 4 3 2 2 2 2 3 4 4 4 5 5 5 6 6 6 7 8 8 8 9 9 10 11
7 7 8 8 8 8 9 9 9 9 8 7 7 7 7 6 6 6 7 7 6 6 6 7 7 7 7 6 7 7 6 5 5 6 7 7 7 7 6 6 5 4 4 2 2 2 2 2 2 2 3 4 4 5 5 6 6 7 7 7 7 8 8 9 9 10 11 12 12
8 8 8 9 9 9 9 9 8 7 6 6 7 7 7 7 6 6 5 5 5 5 6 6 6 6 6 6 6 5 5 3 4 4 5 5 4 3 3 2 2 2 1 1 1 2 2 3 3 4 4 5 5 6 6 6 7 7 8 8 9 9 10 10 11 11 12 12 12
9 9 9 9 9 9 8 7 6 6 6 6 7 8 8 8 6 5 4 4 4 5 5 5 5 4 4 4 4 4 4 3 2 2 1 1 0 0 1 0 0 0 1 2 3 3 4 4 4 4 5 5 6 6 6 7 7 8 8 9 10 10 10 11 11 11 11 11 11
10 10 9 8 8 7 6 5 5 6 6 7 8 9 9 7 6 5 4 4 5 5 5 4 4 3 3 3 3 3 2 2 1 1 1 1 1 1 1 1 1 1 2 3 4 4 3 3 3 4 4 5 6 6 7 7 8 9 9 10 10 10 10 10 10 10 10 11 11
10 10 9 7 7 6 6 6 6 7 7 8 8 8 8 7 6 5 5 5 4 4 4 4 4 3 3 2 1 1 1 0 0 1 1 1 1 1 2 2 2 3 3 3 3 2 0 2 3 4 5 5 6 7 7 8 9 9 9 9 9 9 9 10 10 11 11 12 12
9 9 8 8 8 8 8 7 7 8 8 7 7 7 7 7 6 6 6 6 4 4 4 3 3 3 2 1 1 1 1 2 2 3 3 4 4 5 5 4 3 3 1 0 2 3 4 5 5 5 5 6 6 7 7 8 8 8 9 8 9 9 10 10 11 11 12 11 12
9 9 9 9 9 8 8 8 7 7 7 7 7 7 7 7 7 7 7 6 4 3 3 2 3 2 2 2 3 4 4 5 5 6 6 6 6 6 5 4 3 3 2 3 5 6 7 7 7 7 7 7 7 7 7 7 8 9 9 9 9 10 10 11 12 12 12 11 11
10 10 10 10 9 8 7 7 6 6 7 7 7 8 7 7 7 7 6 5 4 3 3 3 3 3 4 5 6 7 7 7 7 6 6 6 5 5 5 5 5 4 4 5 6 7 7 7 8 8 8 7 7 7 7 8 8 8 9 9 9 10 11 11 11 11 11 11 11
10 10 10 9 9 7 7 6 7 7 7 7 7 7 7 7 6 6 6 5 5 5 5 5 5 5 6 6 6 7 7 6 6 5 5 5 6 6 6 7 7 5 3 2 3 4 5 6 6 6 7 7 6 6 6 7 7 8 8 8 9 9 10 10 10 10 10 11 11
9 8 8 7 7 7 7 7 8 8 7 7 7 7 7 7 7 7 6 7 7 7 7 7 6 6 6 6 5 5 5 5 5 5 5 6 6 7 7 7 7 4 1 4 2 2 3 4 5 5 5 5 6 6 7 7 8 8 8 8 9 10 11 11 11 11 11 11 11
7 6 6 6 6 7 7 8 8 8 7 7 7 7 7 8 8 8 8 9 8 8 7 7 7 6 6 6 5 5 5 5 5 5 5 6 7 7 7 7 7 3 3 5 3 2 3 4 4 4 4 5 6 7 7 8 9 9 9 9 10 11 12 11 11 12 12 12 12
6 5 5 6 6 7 7 7 7 8 8 8 9 9 9 9 9 9 9 8 7 7 7 6 6 6 6 6 6 6 6 6 5 5 5 6 6 7 7 7 5 2 3 4 3 3 4 4 5 5 5 6 6 8 9 10 10 10 11 11 12 12 12 11 10 11 12 13 12
5 6 6 6 6 6 7 7 8 9 9 10 10 10 10 9 9 8 7 6 6 5 6 6 6 6 6 6 6 6 6 6 6 6 5 5 6 6 7 7 3 2 5 4 4 4 5 5 6 6 7 7 8 9 10 11 10 10 10 11 11 12 12 12 12 12 12 12 12
6 6 7 7 7 7 7 8 9 10 10 10 10 9 9 8 7 6 5 4 4 4 4 5 5 5 5 5 6 6 6 6 6 6 5 5 6 6 6 6 2 4 6 4 5 5 6 6 7 8 8 9 9 9 11 12 11 10 11 11 11 12 12 12 12 12 12 12 11
7 7 7 7 8 8 9 10 10 10 9 9 8 7 6 5 4 4 4 3 4 4 4 4 4 4 4 5 5 6 6 5 5 5 5 5 6 6 6 6 3 5 6 4 5 5 6 7 8 8 9 9 9 9 10 12 11 11 12 12 12 12 12 12 11 11 11 11 11
8 8 8 8 9 9 9 9 9 8 7 6 5 4 4 3 3 3 3 4 4 5 5 5 4 4 4 5 5 5 4 4 4 4 4 4 5 6 7 7 4 4 5 4 4 5 7 7 8 9 10 9 8 9 9 10 10 11 12 12 12 12 12 11 11 10 10 10 10
8 8 8 8 8 8 7 7 6 5 4 3 3 3 4 4 4 3 3 3 5 5 5 5 5 5 5 5 5 5 4 4 4 3 3 3 4 5 6 7 5 3 3 4 4 5 7 8 8 9 10 9 9 9 9 9 9 9 11 12 12 11 11 10 10 10 10 10 10
8 7 7 7 6 6 5 4 4 3 3 3 4 4 4 5 4 4 3 3 5 6 6 6 6 5 5 5 5 4 4 3 3 2 2 3 3 5 6 7 6 5 3 3 4 5 7 8 9 9 9 9 9 9 9 8 9 9 10 10 10 10 10 9 8 8 9 10 10
6 6 6 5 4 4 3 3 3 4 4 4 5 5 5 5 4 4 3 4 5 5 6 6 6 5 5 5 5 4 3 2 1 1 1 2 2 3 5 6 7 6 4 3 4 5 6 8 9 10 10 9 9 9 8 8 9 9 10 9 9 9 9 8 8 8 9 10 12
5 4 4 3 3 3 3 3 4 4 4 5 5 5 5 5 4 4 4 4 4 5 5 5 5 5 5 5 5 4 3 3 1 0 0 1 1 2 3 5 6 6 6 4 4 5 6 8 9 10 10 9 9 8 8 8 9 9 9 9 8 8 8 8 8 8 9 10 11
3 3 2 2 3 4 4 5 5 5 4 4 5 5 5 5 5 5 5 5 5 5 5 5 5 5 4 4 4 3 3 4 3 2 1 2 2 2 3 4 6 7 7 5 5 6 7 8 9 10 10 9 8 8 7 7 8 9 9 9 9 8 8 8 8 9 9 10 10
Wind_Direction
232 222 213 213 220 228 234 235 232 237 248 257 266 268 270 270 274 276 276 276 278 281 284 286 288 289 288 285 279 274 269 264 253 243 234 228 220 211 203 198 195 194 196 201 200 203 209 216 217 219 225 230 236 241 244 246 246 246 246 247 249 248 245 242 238 230 224 223 223
223 217 211 207 213 223 230 231 222 219 223 233 247 259 267 270 275 278 280 280 280 281 283 284 284 283 282 280 275 270 265 260 248 237 227 222 214 206 200 198 198 199 201 203 204 207 211 210 207 207 212 219 231 239 247 253 255 255 253 250 249 248 244 239 235 230 227 227 228
225 220 216 212 213 217 222 227 225 225 226 228 230 242 256 265 270 275 279 280 279 279 278 276 276 276 275 273 267 261 255 249 239 230 222 217 211 206 203 202 202 202 202 202 204 206 207 205 204 208 212 216 224 235 245 250 247 246 245 243 241 239 236 234 232 231 231 232 232
227 224 222 220 220 221 224 229 235 239 241 239 234 237 247 259 264 268 271 274 273 271 269 268 267 266 264 262 255 249 243 237 231 225 220 216 211 209 208 208 206 203 199 198 203 206 207 205 207 212 219 228 238 244 246 243 237 236 237 237 236 234 232 230 230 231 233 234 235
227 225 224 225 225 227 230 236 245 251 254 252 246 244 246 252 256 259 261 263 262 261 260 261 260 255 250 250 249 245 239 232 227 223 219 217 214 213 212 212 211 206 201 201 206 209 211 212 216 222 230 239 246 249 248 243 238 237 237 236 234 232 230 228 227 228 229 232 233
227 225 224 224 228 232 238 244 254 262 268 268 263 261 260 257 257 259 261 262 262 262 261 257 256 252 249 249 248 244 237 230 225 222 220 219 217 215 214 214 213 210 207 208 211 213 215 218 225 231 238 245 246 245 243 242 242 242 242 239 234 232 229 227 226 227 229 231 235
235 231 227 223 225 232 242 251 264 273 278 275 270 270 270 272 273 273 273 272 272 270 266 256 249 247 248 249 247 242 236 229 224 221 221 221 219 217 214 214 215 215 214 216 216 217 219 223 230 233 234 236 240 240 239 239 241 242 243 243 237 232 231 231 230 231 234 237 242
249 248 246 243 241 244 254 269 284 287 285 281 278 278 279 281 282 282 281 280 278 276 271 259 249 248 249 249 246 242 237 231 225 222 221 222 221 218 216 215 217 219 220 222 222 222 223 226 231 234 233 230 236 239 239 237 236 238 243 246 243 237 233 236 237 239 242 244 247
270 278 286 287 289 296 305 315 311 305 299 294 292 291 290 289 288 287 286 284 281 279 274 264 256 253 252 251 247 243 238 234 229 225 223 221 220 218 216 214 217 221 223 225 228 229 229 230 232 236 239 240 242 241 237 230 229 233 239 248 250 245 240 241 244 246 248 250 250
311 314 314 315 331 341 342 339 328 316 307 301 299 297 295 294 291 288 286 286 284 281 277 271 265 261 258 254 249 245 241 238 234 229 224 219 217 216 215 215 218 223 226 227 231 233 233 233 235 240 244 247 247 243 236 226 227 232 238 248 250 249 247 245 247 249 251 253 252
335 333 334 342 354 357 353 346 337 326 315 307 304 302 301 299 295 291 287 286 285 284 281 278 274 269 263 257 252 247 243 239 235 229 223 217 215 215 215 217 222 227 230 230 230 232 234 237 242 246 248 248 247 243 237 230 233 237 242 248 249 249 249 248 249 251 253 254 254
347 346 350 359 3 1 355 348 339 329 320 313 310 309 308 307 304 300 295 291 289 287 286 283 278 272 265 259 252 247 243 236 232 229 226 222 219 219 220 221 226 231 235 234 231 231 236 242 248 251 250 247 245 242 239 236 238 241 244 247 248 248 248 248 250 253 255 256 256
3 4 7 12 9 1 351 339 328 319 314 312 311 312 312 312 310 308 304 300 297 295 293 290 283 275 267 260 254 248 242 236 233 232 231 229 228 228 229 229 231 236 239 240 237 239 245 250 253 253 252 247 244 243 243 242 243 245 246 247 247 247 248 249 251 254 256 258 257
29 27 22 16 7 353 336 318 309 304 304 307 310 312 313 313 313 311 309 305 302 300 299 297 290 281 271 264 259 253 247 241 239 238 237 237 236 236 237 237 238 241 244 245 244 247 251 256 256 254 252 249 247 246 245 244 246 248 250 250 250 249 250 250 251 253 253 253 252
33 28 20 9 351 325 302 291 288 290 296 303 309 312 313 312 311 309 306 302 300 299 298 297 292 285 276 268 264 260 255 249 245 243 242 241 241 241 241 243 245 248 251 253 251 251 254 258 257 256 254 253 252 250 248 245 247 249 252 254 254 254 253 252 251 250 249 247 248
28 19 1 323 288 274 270 272 276 284 295 302 306 308 307 306 305 302 299 296 295 295 295 295 292 286 278 268 262 259 256 253 248 245 243 244 244 244 246 250 254 259 262 262 260 256 255 255 257 258 259 259 259 258 256 252 250 251 253 255 256 257 257 256 256 255 254 252 253
153 230 236 242 249 254 259 266 276 287 296 300 301 300 300 299 298 297 295 294 293 293 293 292 288 282 275 265 255 250 249 249 247 245 246 248 251 253 257 261 266 270 272 272 268 263 256 250 251 255 260 265 267 267 265 262 257 254 253 255 257 259 262 264 265 265 265 265 266
209 219 228 237 245 252 261 272 282 289 293 293 294 294 294 294 295 295 293 291 288 285 284 282 278 273 266 259 249 243 241 243 246 248 252 257 263 269 273 277 279 281 281 279 275 270 266 262 261 261 263 265 267 269 270 268 265 263 264 266 268 270 273 275 275 276 276 276 277
227 234 240 245 252 259 268 277 282 285 286 287 288 290 292 294 294 291 287 282 277 274 272 272 269 264 259 252 245 240 239 243 248 253 259 266 274 280 284 286 288 289 289 286 282 281 282 289 297 290 276 268 269 270 271 273 275 279 282 286 286 286 285 284 284 284 284 284 283
249 252 255 259 265 270 275 278 278 279 280 282 285 289 291 292 288 282 278 277 274 270 267 266 264 259 253 244 239 237 238 243 252 260 267 274 280 285 289 293 295 296 295 292 296 300 306 316 327 312 298 295 293 293 293 294 296 298 299 298 295 293 290 288 287 285 283 279 276
264 266 268 271 273 275 276 277 277 278 279 280 283 286 287 283 277 274 275 280 280 274 266 261 260 257 251 244 242 243 245 252 266 276 281 285 287 292 298 305 303 299 292 288 310 334 345 351 351 342 332 324 317 314 312 311 307 303 300 295 292 289 285 282 278 273 269 265 263
274 274 275 275 275 275 275 276 277 277 278 281 284 285 283 278 274 274 278 286 284 277 269 262 260 260 260 261 264 267 272 279 288 292 293 292 296 303 312 312 300 291 288 303 25 26 18 7 357 347 336 324 316 310 306 300 295 290 287 283 279 275 270 266 263 261 259 258 259
277 277 277 276 275 275 275 274 273 273 276 282 286 287 285 282 280 278 278 280 277 276 274 271 273 279 287 295 297 297 293 289 283 280 284 291 312 85 102 128 134 43 36 43 35 23 10 357 343 331 320 308 299 291 284 277 272 270 269 268 267 265 263 260 259 258 257 258 259
281 282 282 283 284 283 278 271 269 272 278 287 291 293 292 290 287 281 275 272 276 281 289 298 309 319 325 326 317 308 295 270 219 172 146 128 117 112 109 103 59 42 40 45 41 28 7 337 318 304 293 283 276 271 266 261 260 260 262 264 267 268 268 267 266 265 264 263 263
288 292 298 305 303 297 287 279 283 290 298 303 304 303 302 299 295 288 284 283 291 302 314 326 334 338 340 336 335 325 316 304 112 115 109 101 64 31 9 360 8 17 28 45 71 86 200 253 266 271 272 270 267 266 265 264 265 267 269 271 274 275 275 273 271 269 268 267 267
313 322 328 329 320 310 304 304 311 317 320 319 316 312 308 304 299 296 294 296 311 327 339 345 356 356 348 340 22 32 31 34 26 16 6 2 1 358 354 351 352 351 346 273 175 191 210 227 239 252 264 271 273 275 276 276 277 277 276 274 274 273 273 272 271 270 269 268 269
347 347 343 334 327 323 324 329 335 334 330 325 320 316 312 309 308 307 309 316 336 354 7 16 28 18 357 357 18 19 16 15 14 8 360 353 347 340 333 323 309 291 261 222 209 213 222 233 239 246 255 266 270 274 278 281 283 282 279 273 270 268 268 269 270 271 272 271 272
351 345 338 333 332 333 338 343 344 343 340 338 334 330 327 325 327 330 336 347 3 14 26 35 27 18 10 10 12 11 8 4 2 356 348 337 324 314 304 295 283 270 247 220 216 223 235 247 251 253 255 263 269 272 274 277 279 279 277 274 271 270 270 271 272 274 276 277 276
346 342 339 338 340 345 353 1 4 4 3 1 356 353 352 357 4 10 17 24 23 21 20 22 17 14 11 7 4 1 358 353 346 336 325 312 301 293 287 281 275 267 243 192 213 238 257 268 269 266 263 266 274 279 282 281 280 278 276 275 275 276 277 279 281 283 284 284 283
349 348 349 353 359 8 17 25 29 28 26 24 22 23 27 35 40 41 39 35 27 22 17 13 9 5 1 357 352 346 340 333 325 314 302 292 285 282 279 275 275 280 46 75 49 316 293 285 281 277 275 277 280 283 286 286 285 283 281 280 280 281 283 284 286 286 287 286 286
6 8 13 21 27 32 37 42 44 45 44 43 42 43 44 47 46 41 35 28 22 17 12 5 358 352 347 342 335 327 319 311 301 291 284 279 278 279 281 282 285 307 39 57 28 342 313 302 299 299 298 297 288 287 287 288 287 285 284 283 284 285 286 287 287 287 286 286 286
33 38 43 47 47 47 48 50 51 51 49 47 45 43 42 41 38 34 28 21 14 7 360 353 346 341 335 328 321 313 306 298 290 286 285 286 287 288 290 290 294 337 50 52 19 348 332 325 319 315 311 305 293 289 287 285 284 282 281 281 282 283 284 285 285 286 286 287 288
58 60 60 58 55 54 52 51 49 46 44 41 39 36 35 33 32 29 23 14 2 353 346 340 333 326 320 315 310 307 303 300 299 299 300 298 296 294 291 287 298 46 61 41 15 355 343 333 324 318 312 305 294 287 283 281 279 278 278 279 280 282 283 284 285 287 289 290 291
65 61 57 53 51 48 46 45 43 41 39 37 35 32 29 26 23 18 11 359 345 335 327 320 314 309 305 304 305 307 309 311 314 315 313 308 300 296 294 293 344 67 68 34 13 355 342 332 324 318 312 304 293 286 283 282 280 280 280 281 283 284 286 287 288 289 291 292 293
57 53 49 46 44 42 40 40 40 39 38 36 32 28 23 16 9 360 348 335 321 310 303 298 297 298 300 304 307 310 312 312 314 316 316 313 308 305 305 308 356 67 74 37 10 352 339 331 325 320 313 303 291 285 284 285 284 285 285 286 286 287 288 289 291 292 293 294 292
49 47 45 43 43 42 41 40 40 39 37 31 22 13 3 354 348 340 330 316 304 298 296 297 301 306 310 312 310 309 309 308 309 315 319 320 315 315 316 317 344 51 71 41 8 348 337 331 327 322 314 302 293 289 289 289 289 289 289 289 289 290 292 295 297 297 295 291 287
48 46 45 44 45 45 43 41 38 34 28 15 360 348 340 333 334 331 323 308 302 302 305 311 315 318 319 317 313 313 314 314 318 324 331 334 328 325 322 319 330 4 43 37 4 345 334 329 327 322 315 303 298 296 295 294 293 293 293 293 294 296 299 301 299 294 289 284 282
51 50 50 49 47 45 42 35 25 14 2 349 343 337 331 326 328 329 324 307 306 308 313 317 319 321 322 318 313 314 318 323 332 339 344 346 340 331 324 318 322 333 356 22 357 339 329 325 323 321 316 306 303 301 299 298 297 298 298 299 299 299 299 296 291 286 281 278 278
54 53 52 50 45 38 27 14 4 353 345 338 335 330 326 322 324 324 318 303 305 308 311 313 318 323 325 319 315 318 324 328 343 355 351 339 344 333 323 317 318 323 334 358 345 332 324 321 321 319 315 306 304 302 302 303 302 301 300 299 296 294 291 288 284 282 280 279 279
56 54 50 42 27 12 360 353 349 343 337 333 329 326 322 321 320 316 311 303 307 309 311 315 323 329 330 323 320 324 328 316 301 267 265 302 323 315 309 310 313 316 322 335 335 328 322 319 319 318 315 307 307 306 306 305 302 299 297 295 294 293 292 290 288 287 286 286 284
54 48 37 19 2 353 346 342 339 335 330 325 323 320 319 317 318 320 321 322 323 322 322 324 328 332 331 320 319 323 321 304 292 277 254 271 283 281 286 301 308 312 318 327 332 328 322 318 318 317 316 312 311 308 305 301 298 297 297 298 300 300 299 298 296 293 291 290 288